Rbgn^[z[y[W
メイン
   新天体発見情報
     Comet P/2011 NO1 = 2023 WM26 (Elenin)
投稿するにはまず登録を

スレッド表示 | 新しいものから 前のトピック | 次のトピック | 下へ
投稿者 スレッド
佐藤裕久
投稿日時: 2024-2-3 17:46
モデレータ
登録日: 2005-6-12
居住地: 日本
投稿: 2590
オンライン
Comet P/2011 NO1 = 2023 WM26 (Elenin)

2023年11月18日、HaleakalaにあるPan-STARRS2 1.8-m Ritchey-Chretien 反射望遠鏡で得た
CCD画像から、小惑星状天体が発見された。
MPEC 2023-Y72で2023 WM26の符号がつけられたが、P/2011 NO1 (IAUC 9227、CBET 2768参照)
の偶然の検出とわかった。
M. Meyerは、2023年12月21日、2023 WM26とP/2011 NO1の同定を報告した。
数日後、佐藤英貴氏(東京都文京区)は、2023年12月23.3日UT、120-秒CCD露出8枚のスタック, 
"Deep Sky Chile" 0.51-m f/6.8 アストログラフ, Rio Hurtado, チリ, 遠隔操作:強く集光
した5" のコマが見えるが尾はない。2".8の円形範囲で測定した光度は19.9等であったと書い
ている。
NK 4403 (= ICQ's 2023 CometHandbook)の中野主一氏の予報に対し、Delta(T)は、-0.25 day
であった。
MMPEC 2021-B143のM. Rudenkoの予報に対する修正値は、Delta(T) = -1.18 daysであった。
彗星年表2023の佐藤裕久の軌道に対する修正値は、Delta(T) = -0.71 dayであった。

検出位置は次のとおり、

     2023 UT             R.A. (2000) Decl.       Mag.
     Oct. 17.59024    8 07 22.98   +25 41 10.0   22.4
          17.60242    8 07 23.86   +25 41 06.0   23.3
          24.60578    8 15 41.88   +25 04 34.8   22.5
          24.61421    8 15 42.44   +25 04 32.2   22.7
          24.62265    8 15 43.01   +25 04 29.5   22.4
     Nov. 12.57442    8 35 34.26   +23 15 38.8   22.0
          12.58555    8 35 34.87   +23 15 34.0   22.0
          12.59670    8 35 35.48   +23 15 30.2   21.5
          18.56288    8 40 49.18   +22 38 16.2   21.7
          18.57518    8 40 49.77   +22 38 11.6   21.9
          18.58762    8 40 50.36   +22 38 06.9   21.8

MPCの連結軌道要素、位置推算表は次のとおり、

Orbital elements:
    P/2011 NO1 (Elenin)                                                         
Epoch 2023 Sept. 13.0 TT = JDT 2460200.5                                        
T 2024 May 7.53848 TT                                   Rudenko                 
q   1.2438372            (2000.0)            P               Q                  
n   0.07392366     Peri.  263.52600     -0.91137153     +0.33514354             
a   5.6227279      Node   295.83402     -0.18498254     -0.85207989             
e   0.7787840      Incl.   15.39335     -0.36767294     -0.40204312             
P  13.3                                                                         
From 67 observations 2011 June 12-Aug. 16, mean residual 1".1.                  
                                                                                
Ephemeris:
Date    TT    R. A. (2000) Decl.     Delta      r    Elong.  Phase   m1
2023 12 29    08 49 14.5 +18 22 26   1.1702  2.0653   146.9    15.1  18.5
...
2024 01 13    08 39 47.1 +16 02 19   0.9678  1.9315   163.6     8.2  17.8
...
2024 01 21    08 31 14.5 +14 33 09   0.8813  1.8611   172.3     4.1  17.4
...
2024 01 27    08 23 31.7 +13 18 24   0.8269  1.8090   174.0     3.3  17.2
2024 01 28    08 22 09.4 +13 05 17   0.8187  1.8004   173.3     3.6  17.1
2024 01 29    08 20 45.9 +12 51 58   0.8107  1.7918   172.5     4.1  17.1
...
2024 02 04    08 12 06.6 +11 28 21   0.7683  1.7406   165.7     8.0  16.8
...
2024 02 12    08 00 24.3 +09 28 16   0.7253  1.6740   155.4    14.2  16.5
...
2024 02 27    07 42 10.4 +05 28 07   0.6797  1.5554   136.5    26.0  16.1

(MPEC 2024-B143、CBET 5340、oaa-comet 6023)

スレッド表示 | 新しいものから 前のトピック | 次のトピック | トップ

投稿するにはまず登録を
 
© 1999 Tsutomu Seki.